Location: Huppendorf
(49.9333°N, 11.1500°E)
Time: 20:16:59
(UTC+00:00)

USA 234 - Pass Details

Date: 27 February 2020
Orbit: 1101 x 1107 km, 123.0° (Epoch: 29 March)

Event Time Altitude Azimuth Distance (km) Brightness Sun altitude
Exits shadow 18:55:20 27° 67° (ENE) 1,983 4.1 -20.3°
Maximum altitude 18:58:43 50° 7° (N) 1,380 3.8 -20.9°
Drops below altitude 10° 19:04:58 10° 295° (WNW) 2,966 6.6 -21.8°
Sets 19:07:31 0° 290° (WNW) 3,925 7.6 -22.2°
